Regional Weather Roundup
Issued by NWS Sioux Falls, SD

Home | Current Version | Previous Version | Graphics & Text | Print | Product List | Glossary On
Versions: 1 2 3 4 5 6 7 8 9 10 11 12 13 14 15 16 17 18 19 20 21 22 23 24 25 26 27 28 29 30 31 32 33 34 35 36 37 38 39 40 41 42 43 44 45 46 47 48 49 50
000
ASUS43 KFSD 242310
RWRFSD

WEATHER ROUNDUP FOR SE SOUTH DAKOTA/SW MINNESOTA/NW IOWA
NATIONAL WEATHER SERVICE SIOUX FALLS SD
600 PM CDT FRI JUN 24 2016

NOTE: "FAIR" INDICATES FEW OR NO CLOUDS BELOW 12,000 FEET WITH NO
SIGNIFICANT WEATHER AND OR OBSTRUCTIONS TO VISIBILITY.


SDZ038>040-050-052>070-250000-
SOUTHEAST SOUTH DAKOTA

CITY           SKY/WX    TMP DP  RH WIND       PRES   REMARKS
BROOKINGS      SUNNY     83  67  58 SE24G30   29.85F
CHAMBERLAIN    SUNNY     92  76  59 SE14G24   29.71F HX 103
HURON          SUNNY     89  70  53 S26G33    29.73F
MADISON        FAIR      82  68  61 S18G28    29.85F
MITCHELL       SUNNY     91  71  51 S25G35    29.76F HX  97
SIOUX FALLS    MOSUNNY   84  69  60 S17       29.85F
WINNER         FAIR      99  64  31 S21G28    29.71F HX 101
YANKTON        SUNNY     90  72  55 SE20      29.80F HX  96
$$

MNZ071-072-080-081-089-090-097-098-250000-
SOUTHWEST MINNESOTA

CITY           SKY/WX    TMP DP  RH WIND       PRES   REMARKS
FAIRMONT       SUNNY     81  66  61 S15G21    29.94F
JACKSON        MOSUNNY   82  61  47 SE17      29.95F
LUVERNE        PTSUNNY   82  63  51 SE16G23   29.88F
MARSHALL       SUNNY     86  66  51 S18G26    29.86F
MONTEVIDEO     SUNNY     86  66  51 S16       29.87F
PIPESTONE      SUNNY     84  63  48 S18G26    29.89F
REDWOOD FALLS  SUNNY     84  65  52 SE20      29.89F
TRACY          SUNNY     85  66  51 S15G23    29.89F
WORTHINGTON    CLOUDY    79  65  62 SE15G23   29.92F
$$

IAZ001>003-012>014-020>022-031-032-NEZ013-014-SDZ071-250000-
NORTHWEST IOWA

CITY           SKY/WX    TMP DP  RH WIND       PRES   REMARKS
CHEROKEE       CLOUDY    86  69  56 S16G22    29.89F
DENISON        CLOUDY    88  72  58 S10G20    29.90S
ESTHERVILLE    PTSUNNY   79  65  62 SE17      29.94F
LE MARS        CLOUDY    88  72  58 SE12G23   29.87F
ORANGE CITY    SUNNY     86  72  62 S13G18    29.89F
SHELDON        CLOUDY    86  66  51 SE15G25   29.88F
SIOUX CITY     MOSUNNY   91  71  51 S18G28    29.86F HX  97
SPENCER        CLOUDY    82  66  58 SE14      29.92F
STORM LAKE     CLOUDY    86  70  58 S18       29.93F
$$

ABBREVIATIONS USED IN REMARKS
   TC - TEMPERATURE IN CELSIUS
  WCI - WIND CHILL INDEX
   HX - HEAT INDEX
  VSB - VISIBILITY





USA.gov is the U.S. government's official web portal to all federal, state and local government web resources and services.